TimeEDT,TemperatureF,Dew PointF,Humidity,Sea Level PressureIn,VisibilityMPH,Wind Direction,Wind SpeedMPH,Gust SpeedMPH,PrecipitationIn,Events,Conditions,WindDirDegrees,DateUTC
12:53 AM,45.0,41.0,86,29.50,8.0,WSW,23.0,29.9,0.00,Rain,Light Rain,240,2011-10-20 04:53:00
1:53 AM,44.1,39.9,85,29.53,10.0,WSW,19.6,28.8,0.00,Rain,Light Rain,240,2011-10-20 05:53:00
2:53 AM,43.0,39.9,89,29.56,10.0,WSW,16.1,24.2,0.01,Rain,Light Rain,240,2011-10-20 06:53:00
3:53 AM,44.1,39.0,82,29.57,10.0,WSW,19.6,32.2,0.00,Rain,Light Rain,240,2011-10-20 07:53:00
4:53 AM,43.0,39.0,86,29.57,10.0,SW,15.0,-,0.00,Rain,Light Rain,230,2011-10-20 08:53:00
5:53 AM,44.1,37.9,79,29.58,10.0,SW,24.2,33.4,0.00,,Overcast,220,2011-10-20 09:53:00
6:53 AM,44.1,37.0,76,29.60,10.0,WSW,21.9,31.1,N/A,,Overcast,240,2011-10-20 10:53:00
7:09 AM,44.6,37.4,76,29.64,10.0,WSW,20.7,33.4,N/A,,Mostly Cloudy,240,2011-10-20 11:09:00
7:53 AM,44.1,37.0,76,29.63,10.0,SW,26.5,36.8,N/A,,Overcast,230,2011-10-20 11:53:00
8:53 AM,43.0,37.9,82,29.66,10.0,SW,21.9,27.6,0.00,Rain,Light Rain,230,2011-10-20 12:53:00
9:53 AM,43.0,37.9,82,29.68,10.0,SW,21.9,28.8,0.00,Rain,Light Rain,230,2011-10-20 13:53:00
10:53 AM,43.0,37.9,82,29.72,10.0,SW,20.7,28.8,0.01,Rain,Light Rain,230,2011-10-20 14:53:00
11:53 AM,44.1,39.0,82,29.75,10.0,SW,15.0,26.5,0.00,Rain,Light Rain,230,2011-10-20 15:53:00
12:53 PM,44.1,39.0,82,29.76,10.0,SW,19.6,26.5,0.00,Rain,Light Rain,230,2011-10-20 16:53:00
1:53 PM,44.1,39.9,85,29.77,10.0,SW,13.8,23.0,0.01,,Overcast,230,2011-10-20 17:53:00
2:53 PM,44.1,39.9,85,29.78,10.0,SW,16.1,20.7,N/A,,Overcast,230,2011-10-20 18:53:00
3:53 PM,44.1,39.0,82,29.81,10.0,SW,15.0,-,N/A,,Overcast,230,2011-10-20 19:53:00
4:49 PM,46.4,37.4,71,29.85,10.0,WSW,10.4,-,N/A,,Overcast,240,2011-10-20 20:49:00
4:53 PM,46.0,37.9,73,29.83,10.0,WSW,8.1,-,N/A,,Overcast,250,2011-10-20 20:53:00
5:46 PM,46.4,39.2,76,29.87,10.0,WSW,9.2,-,N/A,,Overcast,240,2011-10-20 21:46:00
5:53 PM,46.9,39.0,74,29.85,10.0,WSW,10.4,-,N/A,,Overcast,250,2011-10-20 21:53:00
6:53 PM,46.9,39.0,74,29.88,10.0,SW,11.5,-,N/A,,Overcast,230,2011-10-20 22:53:00
7:53 PM,46.9,39.0,74,29.91,10.0,WSW,13.8,-,N/A,,Overcast,240,2011-10-20 23:53:00
8:53 PM,46.9,39.0,74,29.94,10.0,WSW,9.2,-,N/A,,Overcast,240,2011-10-21 00:53:00
9:53 PM,46.9,39.0,74,29.96,10.0,WSW,10.4,-,N/A,,Overcast,240,2011-10-21 01:53:00
10:53 PM,46.9,37.9,71,29.97,10.0,WSW,10.4,-,N/A,,Overcast,250,2011-10-21 02:53:00
11:53 PM,46.9,39.0,74,29.98,10.0,WSW,8.1,-,N/A,,Overcast,240,2011-10-21 03:53:00